Regional Weather Roundup
Issued by NWS

Home | Current Version | Previous Version | Text Only | Print | Product List | Glossary On
Versions: 1 2 3 4 5 6 7 8 9 10 11 12 13 14 15 16 17 18 19 20 21 22 23 24 25 26 27 28 29 30 31 32 33 34 35 36 37 38 39 40 41 42 43 44 45 46 47 48 49 50
000
ASUS42 KFFC 210310
RWRGA
WEATHER ROUNDUP FOR GEORGIA
NATIONAL WEATHER SERVICE PEACHTREE CITY GA
1000 PM EST FRI JAN 20 2017

NOTE: "FAIR" INDICATES FEW OR NO CLOUDS BELOW 12,000 FEET WITH NO
SIGNIFICANT WEATHER AND/OR OBSTRUCTIONS TO VISIBILITY.

* = USE WITH CAUTION. THE STATIONS MARKED WITH AN ASTERISK MAY NOT
REPORT WEATHER SUCH AS PRECIPITATION, FOG, OR THUNDER AND ARE NOT
QUALITY CONTROLLED BY NWS.

THE REMARK "TC" DENOTES TEMPERATURE READING IN DEGREES CELSIUS.

GAZ001>058-210400-
NORTH GEORGIA

CITY           SKY/WX    TMP DP  RH WIND       PRES   REMARKS
ATLANTA        MOCLDY    63  59  87 S6        29.88R
ATHENS         CLEAR     60  56  86 CALM      29.89R
CHAMBLEE       PTCLDY    62  56  80 S3        29.89R
PEACHTREE CITY MOCLDY    57  56  96 CALM      29.88S
ROME           PTCLDY    58  54  86 CALM      29.84S
WEST ATLANTA   PTCLDY    58  54  86 CALM      29.88R
GAINESVILLE    PTCLDY    62  56  80 SW5       29.91R
CARTERSVILLE   CLEAR     60  56  86 S6        29.87S


CITY           SKY/WX    TMP DP  RH WIND       PRES   REMARKS
DALTON*        PTCLDY    59  54  82 CALM      29.86R
MARIETTA       PTCLDY    60  56  86 CALM      29.88R
KENNESAW*      PTCLDY    59  55  88 CALM      29.89R
CANTON*        PTCLDY    63  52  67 S5        29.89S
$$

GAZ059>098-102>109-210400-
CENTRAL GEORGIA

CITY           SKY/WX    TMP DP  RH WIND       PRES   REMARKS
AUGUSTA-BUSH   CLEAR     66  59  78 SW8       29.89R
AUGUSTA-DANIEL CLEAR     66  57  72 SW5       29.90R
COLUMBUS       CLOUDY    63  61  93 CALM      29.86S
MACON          MOCLDY    66  60  81 S3        29.87S
ROBINS AFB     MOCLDY    66  62  84 CALM      29.87R


CITY           SKY/WX    TMP DP  RH WIND       PRES   REMARKS
LAGRANGE*      PTCLDY    58  58 100 CALM      29.87S
SYLVANIA*      CLOUDY   N/A N/A N/A CALM      29.92S
MILLEDGEVILLE* PTCLDY    61  61 100 CALM      29.88R
$$

GAZ099>101-110>166-210400-
SOUTH GEORGIA

CITY           SKY/WX    TMP DP  RH WIND       PRES   REMARKS
SAVANNAH       CLOUDY    65  60  84 S7        29.93R
VALDOSTA       CLOUDY    69  67  93 S6        29.93S
ALMA           CLOUDY    69  67  93 SW8       29.92R
ST SIMONS      CLOUDY    71  63  75 SW7       29.93S
FT STEWART     CLOUDY    64  63  94 CALM      29.90F
ALBANY         PTCLDY    66  66 100 S5        29.91S
HUNTER AFB     CLOUDY    66  66 100 S3        29.91R
MOODY AFB      MOCLDY    69  66  91 S10       29.92R
BRUNSWICK      CLOUDY    72  66  83 SW5       29.93S


CITY           SKY/WX    TMP DP  RH WIND       PRES   REMARKS
BAINBRIDGE*    MOCLDY    68  64  88 S5        29.90S
MOULTRIE*      PTCLDY    68  64  88 SW3       29.92F
VIDALIA*       RAIN      66  66 100 S3        29.92S
WAYCROSS*      CLOUDY    73  72  94 SW7       29.93R
DOUGLAS*       LGT RAIN  68  66  94 SW8       29.93F
$$



USA.gov is the U.S. government's official web portal to all federal, state and local government web resources and services.